星链-4135 (STARLINK-4135 )

导读

STARLINK-4135是美国SpaceX公司星链(Starlink)星座的组网卫星,于2022年7月24日发射入轨,属于星链低轨互联网星座的第四批组网卫星。它采用平板设计、氪工质霍尔推进,运行在约550公里近地轨道,搭载Ku/Ka波段通信载荷与星间链路,为全球提供高速宽带互联网服务,设计寿命5-7年,退役后会主动离轨再入大气层烧毁,是星链全球星座部署的重要组成部分。

基本信息
目录编号:
53248
目录名称:
STARLINK-4135
国际标识:
2022-086G
轨道中心:
EARTH
卫星名称:
星链-4135
卫星全名:
星链-4135 (STARLINK-4135 )
卫星状态:
在轨 (已飞行1511 天)
发射日期:
2022-07-24 UTC
国别 :
美国 (US)
星等 :
--
该卫星已列入 空间交会检测服务 Space Conjunction Data Service (SCDS) ,当前飞行风险评估等级: 无高风险
轨道信息
数据来源 国际轨道数据
星历时间: 2026-09-12T06:27:02+0800
10小时前
查看轨道信息
半长轴: 6848.874km
偏心率: 0.0001091
轨道倾角: 53.161°
近地点辐角 94.306°
升交点赤经 73.710°
平近点角 265.806°
近地点: 469.989km
远地点: 471.485km
周期: 94.013分钟
每日圈数: 15.317011
详细信息
固有亮度:
5
最大亮度:
2.5
卫星平台:
Starlink v1.5
覆盖范围:
全球
运营商:
太空探索技术公司
运营商所在国:
美国
制造商(研发单位):
太空探索技术公司
制造商所在国:
美国
使用方式:
暂无
卫星简介
星链(Starlink)计划是由太空探索技术公司(SpaceX)提出的一个巨型低轨卫星互联网星座项目,计划在2019年至2024年间在太空搭建由约1.2万颗卫星组成的“星链”网络,其中1584颗将部署在地球上空550千米处的近地轨道,并从2020年开始工作。该卫星仍在工作。
2D轨道图
3D轨道图
轨道高度分析图
轨道倾角分析图
轨道综合分析图
查看轨道综合分析图
交会数据列表
事件ID 空间交会对象 最接近时刻(TCA) 交会距离 交会风险概率(CRP) 交会风险指数(CRI) 操作
CDM_260905-124905-324806-143423
2026-09-05T
12:49:58+0000
0.953 km
远距离
3.116514E-5 中风险 0.65
CDM_260912-160905-324806-769721
2026-09-12T
16:09:43+0000
1.978 km
极远距离
2.190897E-6 低风险 0.42
CDM_260913-170505-324806-756521
2026-09-13T
17:05:48+0000
2.922 km
极远距离
1.257969E-6 低风险 0.37
CDM_260913-064905-324806-519121
2026-09-13T
06:49:47+0000
2.700 km
极远距离
1.138116E-6 低风险 0.36
CDM_260914-044305-324806-579221
2026-09-14T
04:43:56+0000
2.734 km
极远距离
1.080755E-6 低风险 0.36
CDM_260913-235705-324806-862622
2026-09-13T
23:57:22+0000
2.572 km
极远距离
1.065936E-6 低风险 0.36
CDM_260913-064505-324806-484222
2026-09-13T
06:45:48+0000
2.947 km
极远距离
9.207709E-7 极低风险 0.34
与全量物体交会距离演化趋势
与全量物体交会风险概率演化趋势